Location: Moscow
(55.7500°N, 37.5830°E)
Time: 20:12:10
(UTC+03:00)

Transit 2A Rocket - Pass Details

Date: 04 December 2021
Orbit: 584 x 917 km, 66.7° (Epoch: 23 January)

Event Time Altitude Azimuth Distance (km) Brightness Sun altitude
Rises 18:02:59 0° 312° (NW) 3,564 8.9 -16.0°
Reaches altitude 10° 18:06:29 10° 293° (WNW) 2,600 8.5 -16.4°
Maximum altitude 18:10:04 16° 256° (WSW) 2,133 8.4 -16.9°
Drops below altitude 10° 18:13:34 10° 219° (SW) 2,512 8.4 -17.4°
Sets 18:16:53 0° 199° (SSW) 3,388 8.8 -17.9°
